Flag for Chile Weather past 2 weeks in Easter Island, Chile

Now
63 °F

Passing clouds.


Feels Like: 63 °F
Forecast: 55 / 70 °F
Wind: 5 mph from Southeast

Location: Isla De Pascua

Current Time: May 28, 2015 at 3:28:30 AM

Latest Report: May 28, 2015 at 3:00 AM


Visibility: N/A

Pressure: 30.21 "Hg

Humidity: 59%

Dew point: 48 °F

Location of Easter IslandLocation

Historic Weather in Easter Island — Graph

°F

Easter Island temperature yesterday

Maximum temperature yesterday: 70 °F (at 1:00 PM)
Minimum temperature yesterday: 64 °F (at 6:00 AM)
Average temperature yesterday: 67 °F

Past Weeks' High & Low Weather Summary

 TemperatureHumidityPressure
High75 °F (May 13, 4:00 PM)94% (May 13, 7:00 AM)30.24 "Hg (May 13, 7:00 AM)
Low55 °F (May 25, 3:00 AM)43% (May 19, 12:00 PM)29.83 "Hg (May 26, 6:00 AM)
Average67 °F73%30.13 "Hg
* Reported May 13 2:00 AM — May 28 2:00 AM, Easter Island, Weather by CustomWeather, © 2015

Note: Actual official high and low records may vary slightly from our data, if they occured in-between our weather recording intervals... More about our weather records

Advertising

Easter Island weather history for previous 24 hours

 ConditionsComfort  
Time TempWeatherWind HumidityBarometerVisibility
2:00 AM
Thu, May 28
64 °FPassing clouds.5 mph56%30.21 "HgN/A
1:00 AM64 °FPassing clouds.5 mph60%30.21 "HgN/A
12:00 AM61 °FPassing clouds.3 mph68%30.21 "HgN/A
11:00 PM
Wed, May 27
64 °FPassing clouds.6 mph64%30.21 "HgN/A
10:00 PM64 °FPassing clouds.5 mph60%30.18 "HgN/A
9:00 PM64 °FPassing clouds.5 mph64%30.18 "HgN/A
8:00 PM66 °FPassing clouds.7 mph60%30.15 "HgN/A
7:00 PM66 °FScattered clouds.7 mph60%30.15 "HgN/A
6:00 PM68 °FScattered clouds.10 mph56%30.12 "HgN/A
5:00 PM68 °FScattered clouds.10 mph56%30.12 "HgN/A
4:00 PM70 °FScattered clouds.9 mph57%30.15 "HgN/A
3:00 PM70 °FScattered clouds.12 mph53%30.15 "HgN/A
2:00 PM70 °FScattered clouds.12 mph53%30.15 "HgN/A
1:00 PM70 °FScattered clouds.12 mph57%30.18 "HgN/A
12:00 PM68 °FScattered clouds.12 mph64%30.18 "HgN/A
11:00 AM66 °FPartly sunny.7 mph73%30.18 "HgN/A
10:00 AM66 °FPartly sunny.7 mph78%30.15 "HgN/A
9:00 AM66 °FSprinkles. Partly sunny.7 mph73%30.12 "HgN/A
7:00 AM66 °FPassing clouds.7 mph68%30.07 "HgN/A
6:00 AM64 °FPassing clouds.5 mph78%30.07 "HgN/A
5:00 AM66 °FPassing clouds.7 mph73%30.07 "HgN/A
4:00 AM66 °FPassing clouds.6 mph68%30.04 "HgN/A
3:00 AM66 °FPassing clouds.5 mph68%30.04 "HgN/A
Weather by CustomWeather, © 2015

See weather overviewHow to use our weather pages